RH
6 4 3 3 3 2 3 3 4 5 7 8 6 5 6 6 6 5 11 17 18 20 19 19 18 15 15 15 13 13 12 12 13
5 4 4 4 4 4 4 5 6 6 5 5 7 8 9 10 11 12 14 16 18 22 20 17 17 14 10 10 10 11 11 12 12
5 5 5 5 5 5 6 6 6 6 7 8 12 14 13 15 17 19 20 22 22 24 24 20 18 17 12 10 9 9 10 12 12
6 6 6 6 6 6 6 8 8 8 11 15 16 16 17 21 22 23 24 24 24 24 27 28 22 15 14 12 13 16 15 13 13
9 8 8 8 8 8 9 10 10 13 16 17 16 18 22 23 23 24 25 26 24 19 20 23 21 11 12 13 16 19 16 13 13
12 11 10 10 9 9 10 11 14 16 20 20 19 21 23 24 25 27 28 28 30 25 20 15 14 10 14 16 21 19 17 13 14
16 14 13 13 12 13 14 14 16 18 21 22 22 23 25 26 28 28 30 30 34 34 33 34 26 13 16 25 25 21 15 14 13
17 17 15 16 16 16 16 17 19 20 22 24 25 25 26 27 28 30 34 32 26 36 39 34 24 16 19 24 25 21 15 14 13
20 18 17 18 17 17 17 18 21 24 23 23 24 24 27 28 28 30 32 34 32 29 39 41 33 17 17 22 26 19 14 13 13
27 25 22 20 21 20 20 22 26 27 25 24 26 26 27 29 30 31 33 42 40 29 41 47 41 17 19 25 25 18 13 14 12
36 32 30 26 23 22 22 24 28 29 26 25 26 28 30 32 31 34 48 66 49 36 44 48 45 24 22 26 22 15 14 14 12
42 42 41 35 31 28 27 29 30 29 26 29 30 32 35 38 37 42 65 61 60 46 46 48 46 33 23 27 22 16 15 14 12
39 39 41 44 43 45 42 39 38 31 30 34 34 38 40 42 41 52 65 57 64 60 58 51 45 32 26 28 22 17 29 56 42
37 36 42 52 59 56 54 51 44 39 40 43 45 47 45 48 49 56 65 60 56 54 51 47 33 30 30 27 24 18 14 14 17
33 36 44 62 60 57 63 62 49 44 47 47 46 49 53 55 54 54 63 61 49 46 43 40 36 34 28 26 28 18 14 13 12
32 35 40 52 49 55 62 64 53 48 48 51 52 56 58 58 56 53 59 58 56 46 41 36 31 26 25 30 25 16 14 13 10
37 47 50 49 49 53 60 56 48 50 53 53 53 54 60 60 59 59 59 60 56 48 34 26 25 24 31 31 21 14 14 13 10
42 45 48 57 50 55 52 47 47 51 56 57 52 52 58 62 62 63 60 60 55 39 29 28 29 31 33 29 16 14 14 14 10
83 66 57 59 60 56 52 51 56 60 68 63 61 57 55 57 59 61 60 57 52 35 34 33 31 37 34 19 14 15 14 12 10
92 93 77 76 74 69 62 60 59 74 72 61 62 62 66 64 54 50 62 53 49 41 34 33 35 42 36 16 16 15 12 11 12
Wind_Speed
4 2 2 2 1 2 2 3 5 6 7 8 9 11 12 13 14 14 15 18 19 19 20 22 24 24 23 22 21 23 25 25 25
3 2 2 1 1 1 3 4 6 7 8 9 10 12 12 14 14 15 17 19 20 20 20 22 24 25 24 23 23 25 26 26 26
3 2 2 1 1 2 3 5 6 7 8 9 10 11 13 14 16 17 18 19 20 22 23 23 24 25 25 24 24 25 27 28 27
3 3 2 2 2 2 4 4 5 6 8 9 10 11 13 15 16 18 21 22 23 24 24 24 25 26 26 26 25 27 28 28 26
5 4 2 2 2 2 3 4 6 7 9 10 11 13 14 16 17 20 22 24 26 26 26 27 27 27 27 27 27 29 29 28 27
7 6 4 3 4 4 4 6 7 8 10 11 12 14 16 18 19 21 23 24 26 26 28 28 28 27 27 27 30 31 31 29 28
8 7 6 5 6 6 6 7 8 9 11 11 12 14 17 18 20 22 24 25 26 27 28 30 29 28 27 29 31 32 31 29 28
10 9 8 8 8 8 8 9 10 11 13 13 14 16 18 20 22 23 25 27 27 29 31 31 30 28 28 30 33 33 32 30 29
13 12 10 10 10 10 10 11 12 12 14 15 16 18 20 21 23 25 27 29 29 30 32 33 33 30 29 31 34 34 32 30 29
16 15 14 13 13 13 13 13 14 16 16 17 17 19 22 23 25 27 29 32 31 31 34 36 33 30 30 33 35 35 33 31 31
18 16 16 16 16 15 15 15 16 17 18 18 19 22 23 24 26 27 31 35 33 34 38 37 35 32 31 33 35 35 33 32 30
21 20 19 19 19 18 18 18 19 19 19 20 21 23 24 26 27 28 35 33 35 35 40 39 37 33 33 34 36 34 33 32 31
24 23 23 22 21 21 21 21 21 21 21 22 23 25 27 28 30 31 38 34 35 36 39 38 38 35 34 36 37 35 32 30 32
27 27 25 23 22 24 24 24 24 24 24 25 26 27 28 31 32 33 37 36 36 40 39 34 33 33 35 37 38 36 35 33 32
30 30 29 26 26 27 27 26 26 27 27 27 29 30 32 33 34 36 37 38 39 40 40 35 36 34 37 40 40 36 35 34 34
33 32 31 31 30 30 29 29 29 29 31 30 32 32 36 37 40 38 39 39 39 39 38 36 37 37 39 41 39 37 34 32 33
34 33 34 33 32 32 32 32 32 32 33 35 35 35 37 40 41 41 41 42 40 37 36 35 38 39 41 41 40 37 35 33 33
38 37 34 33 34 34 34 34 34 34 35 38 41 43 41 42 42 42 42 41 40 37 35 37 38 42 43 41 38 35 35 34 33
42 40 37 36 35 36 37 37 37 39 42 44 46 46 46 46 43 43 43 42 38 37 37 38 40 42 42 40 38 35 34 34 33
32 38 42 38 40 40 41 43 46 46 48 48 47 47 47 46 43 43 43 40 39 38 38 39 43 43 42 38 36 34 33 32 34
Wind_Direction
277 297 289 282 314 332 7 8 13 9 9 6 11 8 6 5 1 358 353 352 352 349 348 350 348 346 343 341 340 339 340 336 334
267 276 266 272 303 347 19 10 16 14 10 13 14 14 1 6 0 354 349 345 347 344 342 344 346 346 343 340 338 336 335 334 333
258 271 277 273 354 11 23 23 22 15 11 7 8 8 3 358 357 353 350 346 343 339 339 341 343 345 342 339 335 335 334 333 329
234 255 277 300 344 3 18 12 8 5 4 358 360 359 358 352 355 351 348 344 341 337 336 335 338 341 340 337 336 335 332 327 324
231 247 266 297 314 334 343 344 349 353 353 354 354 354 350 348 351 345 343 342 338 338 336 335 334 335 336 334 333 332 330 324 322
223 238 253 271 286 299 320 334 339 343 343 346 350 345 344 343 342 342 340 338 338 337 336 334 332 331 334 332 332 330 328 322 318
237 250 264 270 281 293 309 315 325 328 335 336 340 338 339 337 337 337 336 334 336 336 334 333 329 329 329 331 331 329 324 319 316
248 256 268 278 286 291 300 309 312 319 324 326 328 332 331 334 331 330 332 331 330 333 332 332 332 327 324 327 329 327 323 318 314
254 257 266 269 278 286 292 298 303 308 314 321 321 323 326 326 326 326 328 330 327 325 329 329 327 324 321 324 325 323 320 316 311
253 259 263 265 269 276 285 295 303 306 309 312 315 318 321 322 323 325 326 325 324 323 326 326 324 321 319 322 322 321 317 312 311
256 261 265 270 273 277 280 287 292 296 302 308 314 313 315 318 319 320 322 321 321 322 325 322 321 317 317 319 319 317 313 310 307
258 264 268 273 277 280 284 286 292 297 300 305 308 309 311 315 315 317 322 318 318 321 322 318 318 315 314 315 317 314 308 307 303
259 263 269 274 277 284 288 291 294 296 298 301 303 305 310 312 313 314 320 313 318 318 317 314 314 313 314 314 314 311 305 301 299
260 265 268 269 276 284 287 290 292 294 296 298 301 304 308 308 309 309 317 313 315 315 314 313 307 309 312 310 311 307 303 298 296
262 266 269 271 275 279 283 287 289 292 294 296 299 304 307 308 308 307 313 312 314 314 313 313 312 312 308 308 311 307 302 297 297
261 266 269 272 275 276 279 283 288 291 292 296 298 304 306 307 308 308 310 310 309 310 308 310 309 306 310 312 309 304 300 296 296
261 263 268 271 273 277 280 283 286 290 293 294 295 301 303 305 308 308 308 308 307 306 304 304 306 308 310 308 305 304 301 297 295
259 260 264 270 275 277 280 284 286 289 293 294 297 302 303 304 306 305 304 303 305 304 304 305 307 308 307 307 306 303 300 298 295
258 261 263 267 274 278 281 284 287 290 294 295 300 302 303 303 303 303 303 304 302 302 302 303 307 307 306 307 304 302 299 297 293
271 261 260 269 273 276 281 285 287 292 295 294 296 297 299 300 301 301 301 300 301 300 301 303 305 307 307 305 302 300 299 297 296